{"data":{"norad_id":69705,"epoch":"2026-09-19T08:33:12.365568Z","epoch_age_seconds":120310,"freshness":"FRESH","line1":"1 69705U 26147B   26262.35639312  .00013983  00000+0  43450-3 0  9999","line2":"2 69705  97.2820 298.6563 0001466 103.7856 256.3550 15.33456005 14051","mean_motion":15.33456005,"eccentricity":0.0001466,"inclination_deg":97.282,"raan_deg":298.6563,"arg_perigee_deg":103.7856,"mean_anomaly_deg":256.355,"bstar":0.0004345,"rev_number":1405,"period_min":93.905530729589,"perigee_km":464.50715282316,"apogee_km":466.51371025009,"semimajor_km":6843.6474315366,"source":"CELESTRAK","updated_at":"2026-09-20T09:00:44.257395Z"}}